カタログに戻る

HULIANWANG DIGUI-44

運用中通信LEO
NORAD 65047·PAYLOAD·🇨🇳 China

打ち上げ Jul 30, 2025 から Wenchang Space Launch Site

Loading…

次のパス (今後24時間)

TLE

最新Source: Space-Track

元期: Sep 14, 2026, 21:31 UTC

1 65047U 25162E   26257.89712350 -.00000088  00000-0  78111-4 0  9994
2 65047  50.0022 303.9359 0001201 190.5855 169.4992 13.29321875 55306

AllMySatでHULIANWANG DIGUI-44をリアルタイム追跡

Download on the App Store